�������l�o���
Date,Time,MP-1(��Sv/h),MP-2(��Sv/h),MP-3(��Sv/h),MP-4(��Sv/h),MP-5(��Sv/h),MP-6(��Sv/h),MP-7(��Sv/h),MP-8(��Sv/h),����,����(m/s),���J
2018/10/07,00:00,0.784,1.185,0.831,1.469,1.053,0.468,0.811,0.766,��,7.8,��
2018/10/07,00:10,0.784,1.182,0.831,1.469,1.055,0.467,0.809,0.766,��,8.1,��
2018/10/07,00:20,0.785,1.185,0.831,1.470,1.056,0.468,0.811,0.765,��,9.4,��
2018/10/07,00:30,0.784,1.182,0.832,1.468,1.055,0.467,0.809,0.766,��,9.4,��
2018/10/07,00:40,0.783,1.184,0.830,1.470,1.054,0.468,0.810,0.766,��,8.9,��
2018/10/07,00:50,0.784,1.185,0.831,1.469,1.057,0.469,0.810,0.765,��,7.8,��
2018/10/07,01:00,0.784,1.181,0.831,1.466,1.056,0.468,0.810,0.765,��,7.8,��
2018/10/07,01:10,0.783,1.182,0.832,1.469,1.057,0.469,0.810,0.765,��,8.7,��
2018/10/07,01:20,0.783,1.184,0.830,1.467,1.055,0.469,0.811,0.764,��,9.6,��
2018/10/07,01:30,0.784,1.183,0.832,1.469,1.056,0.470,0.809,0.766,��,10.5,��
2018/10/07,01:40,0.784,1.186,0.831,1.469,1.058,0.468,0.811,0.766,��,10.5,��
2018/10/07,01:50,0.786,1.184,0.832,1.469,1.057,0.468,0.812,0.766,��,11.3,��
2018/10/07,02:00,0.784,1.184,0.832,1.472,1.057,0.468,0.810,0.764,��,9.1,��
2018/10/07,02:10,0.783,1.182,0.834,1.469,1.055,0.469,0.812,0.766,��,10.8,��
2018/10/07,02:20,0.785,1.184,0.832,1.470,1.055,0.467,0.811,0.767,��,10.5,��
2018/10/07,02:30,0.785,1.184,0.832,1.470,1.056,0.469,0.811,0.765,��,11.6,��
2018/10/07,02:40,0.785,1.184,0.830,1.467,1.057,0.468,0.811,0.767,��,12.4,��
2018/10/07,02:50,0.783,1.184,0.831,1.470,1.055,0.468,0.811,0.765,��,14.1,��
2018/10/07,03:00,0.786,1.183,0.831,1.469,1.055,0.468,0.812,0.766,��,13.8,��
2018/10/07,03:10,0.785,1.185,0.832,1.470,1.056,0.468,0.811,0.766,��,10.6,��
2018/10/07,03:20,0.782,1.184,0.833,1.468,1.055,0.469,0.811,0.765,��,9.6,��
2018/10/07,03:30,0.784,1.182,0.830,1.468,1.059,0.468,0.813,0.764,��,10.6,��
2018/10/07,03:40,0.783,1.184,0.833,1.470,1.056,0.468,0.813,0.765,��,10.2,��
2018/10/07,03:50,0.787,1.183,0.832,1.470,1.056,0.467,0.810,0.764,��,9.7,��
2018/10/07,04:00,0.784,1.183,0.832,1.467,1.057,0.467,0.811,0.765,��,8.7,��
2018/10/07,04:10,0.785,1.185,0.833,1.470,1.055,0.469,0.811,0.765,��,8.1,��
2018/10/07,04:20,0.784,1.186,0.832,1.470,1.056,0.468,0.812,0.766,��쐼,6.4,��
2018/10/07,04:30,0.787,1.184,0.831,1.470,1.056,0.469,0.810,0.766,��쐼,6.1,��
2018/10/07,04:40,0.786,1.185,0.831,1.469,1.057,0.468,0.812,0.766,��쐼,6.2,��
2018/10/07,04:50,0.785,1.185,0.831,1.470,1.057,0.468,0.813,0.766,��쐼,5.5,��
2018/10/07,05:00,0.786,1.185,0.832,1.469,1.059,0.469,0.813,0.768,��쐼,6.0,��
2018/10/07,05:10,0.785,1.185,0.831,1.468,1.058,0.469,0.810,0.766,��쐼,4.9,��
2018/10/07,05:20,0.786,1.183,0.832,1.471,1.059,0.470,0.812,0.767,��쐼,4.3,��
2018/10/07,05:30,0.785,1.183,0.833,1.469,1.059,0.470,0.811,0.765,�쐼,2.9,��
2018/10/07,05:40,0.785,1.185,0.833,1.470,1.055,0.469,0.811,0.766,�쐼,4.0,��
2018/10/07,05:50,0.785,1.184,0.833,1.471,1.059,0.468,0.811,0.766,���쐼,3.2,��
2018/10/07,06:00,0.786,1.187,0.832,1.469,1.060,0.468,0.811,0.766,��,2.3,��
2018/10/07,06:10,0.786,1.186,0.834,1.468,1.058,0.468,0.810,0.764,��,5.7,��
2018/10/07,06:20,0.787,1.184,0.833,1.471,1.060,0.468,0.812,0.765,��,5.6,��
2018/10/07,06:30,0.787,1.184,0.833,1.467,1.057,0.469,0.814,0.766,��,5.5,��
2018/10/07,06:40,0.787,1.184,0.832,1.470,1.058,0.469,0.814,0.766,��쐼,3.4,��
2018/10/07,06:50,0.785,1.186,0.834,1.472,1.059,0.468,0.812,0.767,��,4.8,��
2018/10/07,07:00,0.789,1.184,0.832,1.468,1.057,0.469,0.812,0.768,��쐼,3.1,��
2018/10/07,07:10,0.790,1.184,0.832,1.471,1.061,0.470,0.810,0.765,���쐼,3.6,��
2018/10/07,07:20,0.789,1.186,0.829,1.471,1.060,0.469,0.813,0.766,���쐼,7.6,��
2018/10/07,07:30,0.788,1.185,0.830,1.471,1.062,0.469,0.814,0.767,���쐼,6.9,��
2018/10/07,07:40,0.788,1.186,0.833,1.472,1.059,0.469,0.812,0.766,���쐼,6.9,��
2018/10/07,07:50,0.789,1.184,0.832,1.475,1.062,0.468,0.810,0.765,�쐼,3.7,��
2018/10/07,08:00,0.788,1.185,0.833,1.473,1.060,0.468,0.813,0.765,�쐼,4.6,��
2018/10/07,08:10,0.789,1.186,0.833,1.471,1.062,0.468,0.812,0.766,�쐼,5.8,��
2018/10/07,08:20,0.789,1.187,0.832,1.471,1.061,0.468,0.812,0.767,���쐼,5.9,��
2018/10/07,08:30,0.789,1.184,0.832,1.475,1.059,0.471,0.811,0.766,�쐼,5.0,��
2018/10/07,08:40,0.790,1.189,0.831,1.473,1.060,0.468,0.810,0.767,��,7.1,��
2018/10/07,08:50,0.788,1.187,0.833,1.474,1.061,0.468,0.811,0.766,��,8.2,��
2018/10/07,09:00,0.790,1.187,0.833,1.473,1.061,0.469,0.814,0.767,��,9.8,��
2018/10/07,09:10,0.787,1.188,0.833,1.477,1.062,0.468,0.810,0.764,��,8.9,��
2018/10/07,09:20,0.787,1.188,0.831,1.475,1.062,0.468,0.813,0.762,��,9.8,��
2018/10/07,09:30,0.788,1.189,0.832,1.473,1.062,0.468,0.812,0.764,��,7.6,��
2018/10/07,09:40,0.789,1.190,0.834,1.477,1.059,0.469,0.812,0.765,��,12.2,��
2018/10/07,09:50,0.790,1.188,0.834,1.475,1.061,0.469,0.814,0.764,��,11.0,��
2018/10/07,10:00,0.789,1.188,0.833,1.475,1.062,0.468,0.811,0.765,��,10.4,��
2018/10/07,10:10,0.790,1.191,0.834,1.477,1.063,0.469,0.814,0.766,��,9.3,��
2018/10/07,10:20,0.792,1.192,0.833,1.478,1.066,0.467,0.813,0.766,��,10.5,��
2018/10/07,10:30,0.793,1.191,0.836,1.478,1.064,0.468,0.812,0.766,��,10.5,��
2018/10/07,10:40,0.790,1.193,0.836,1.482,1.067,0.469,0.814,0.765,��,9.6,��
2018/10/07,10:50,0.791,1.195,0.835,1.478,1.064,0.468,0.814,0.764,��,9.0,��
2018/10/07,11:00,0.792,1.193,0.838,1.479,1.065,0.469,0.814,0.767,���k��,9.1,��
2018/10/07,11:10,0.795,1.193,0.837,1.483,1.065,0.470,0.813,0.765,���k��,9.5,��
2018/10/07,11:20,0.794,1.194,0.838,1.481,1.067,0.472,0.815,0.766,���k��,8.6,��
2018/10/07,11:30,0.792,1.194,0.837,1.486,1.067,0.472,0.813,0.766,��,12.0,��
2018/10/07,11:40,0.793,1.194,0.838,1.484,1.068,0.472,0.813,0.766,��,9.5,��
2018/10/07,11:50,0.794,1.194,0.839,1.485,1.068,0.471,0.813,0.766,��,8.3,��
2018/10/07,12:00,0.792,1.195,0.839,1.485,1.069,0.471,0.815,0.767,��,8.6,��
2018/10/07,12:10,0.795,1.196,0.840,1.485,1.068,0.469,0.814,0.766,��,9.4,��
2018/10/07,12:20,0.794,1.197,0.838,1.487,1.071,0.471,0.814,0.768,��,8.2,��
2018/10/07,12:30,0.796,1.198,0.838,1.485,1.070,0.471,0.815,0.767,��,10.4,��
2018/10/07,12:40,0.794,1.196,0.840,1.487,1.070,0.471,0.815,0.766,��,9.2,��
2018/10/07,12:50,0.794,1.199,0.840,1.487,1.072,0.473,0.815,0.767,���쐼,5.0,��
2018/10/07,13:00,0.797,1.199,0.840,1.486,1.070,0.471,0.815,0.766,��,6.0,��
2018/10/07,13:10,0.796,1.197,0.840,1.489,1.072,0.473,0.818,0.768,��,8.2,��
2018/10/07,13:20,0.795,1.198,0.837,1.488,1.070,0.470,0.815,0.767,��,9.2,��
2018/10/07,13:30,0.795,1.198,0.839,1.488,1.071,0.471,0.816,0.767,��,9.4,��
2018/10/07,13:40,0.795,1.197,0.839,1.488,1.073,0.471,0.814,0.768,���k��,3.6,��
2018/10/07,13:50,0.797,1.199,0.840,1.487,1.071,0.470,0.814,0.768,�k��,3.2,��
2018/10/07,14:00,0.796,1.197,0.839,1.486,1.074,0.470,0.816,0.769,�k��,4.2,��
2018/10/07,14:10,0.795,1.201,0.841,1.489,1.077,0.471,0.816,0.768,��,4.5,��
2018/10/07,14:20,0.797,1.203,0.841,1.489,1.075,0.470,0.815,0.767,�k��,5.0,��
2018/10/07,14:30,0.795,1.202,0.841,1.492,1.073,0.470,0.814,0.768,��,7.0,��
2018/10/07,14:40,0.797,1.201,0.843,1.489,1.074,0.470,0.815,0.767,��,6.5,��
2018/10/07,14:50,0.797,1.203,0.840,1.490,1.072,0.469,0.815,0.768,��,9.0,��
2018/10/07,15:00,0.797,1.201,0.839,1.489,1.073,0.469,0.815,0.768,��,9.3,��
2018/10/07,15:10,0.795,1.202,0.841,1.492,1.076,0.469,0.815,0.767,��,9.8,��
2018/10/07,15:20,0.796,1.198,0.840,1.492,1.074,0.468,0.813,0.768,��,7.6,��
2018/10/07,15:30,0.797,1.199,0.842,1.492,1.074,0.469,0.815,0.767,��,7.4,��
2018/10/07,15:40,0.796,1.201,0.841,1.492,1.074,0.469,0.814,0.766,��,7.6,��
2018/10/07,15:50,0.797,1.200,0.840,1.494,1.076,0.470,0.816,0.766,���k��,7.9,��
2018/10/07,16:00,0.794,1.198,0.842,1.490,1.076,0.470,0.815,0.768,��,6.1,��
2018/10/07,16:10,0.795,1.199,0.840,1.492,1.075,0.469,0.815,0.766,��,6.5,��
2018/10/07,16:20,0.795,1.201,0.839,1.493,1.074,0.470,0.813,0.767,��,8.0,��
2018/10/07,16:30,0.796,1.203,0.841,1.491,1.075,0.469,0.813,0.767,��,8.1,��
2018/10/07,16:40,0.797,1.200,0.841,1.492,1.074,0.468,0.815,0.766,��,6.8,��
2018/10/07,16:50,0.795,1.199,0.842,1.492,1.072,0.468,0.814,0.768,���k��,8.7,��
2018/10/07,17:00,0.796,1.197,0.842,1.493,1.074,0.469,0.815,0.768,���k��,8.8,��
2018/10/07,17:10,0.794,1.201,0.839,1.493,1.074,0.470,0.814,0.768,�k��,11.1,��
2018/10/07,17:20,0.795,1.200,0.840,1.492,1.074,0.467,0.815,0.768,�k��,9.0,��
2018/10/07,17:30,0.796,1.200,0.840,1.492,1.073,0.467,0.814,0.769,�k��,9.5,��
2018/10/07,17:40,0.794,1.199,0.840,1.494,1.074,0.469,0.815,0.770,�k��,8.4,��
2018/10/07,17:50,0.794,1.200,0.840,1.495,1.072,0.468,0.815,0.769,�k�k��,7.5,��
2018/10/07,18:00,0.794,1.200,0.842,1.493,1.073,0.468,0.815,0.771,�k�k��,7.4,��
2018/10/07,18:10,0.794,1.200,0.842,1.491,1.075,0.469,0.815,0.767,�k��,8.6,��
2018/10/07,18:20,0.795,1.198,0.841,1.492,1.072,0.467,0.815,0.769,�k��,11.3,��
2018/10/07,18:30,0.794,1.202,0.841,1.494,1.075,0.468,0.814,0.770,�k��,9.4,��
2018/10/07,18:40,0.795,1.202,0.840,1.496,1.076,0.466,0.814,0.771,�k��,9.0,��
2018/10/07,18:50,0.795,1.204,0.841,1.495,1.077,0.467,0.814,0.769,�k��,7.9,��
2018/10/07,19:00,0.795,1.203,0.840,1.494,1.077,0.467,0.813,0.769,�k��,6.5,��
2018/10/07,19:10,0.795,1.202,0.843,1.493,1.074,0.467,0.814,0.771,�k��,8.2,��
2018/10/07,19:20,0.794,1.203,0.840,1.496,1.076,0.466,0.815,0.769,�k�k��,5.6,��
2018/10/07,19:30,0.796,1.205,0.840,1.499,1.077,0.465,0.814,0.769,�k�k��,6.1,��
2018/10/07,19:40,0.795,1.204,0.842,1.496,1.076,0.466,0.815,0.769,�k,4.3,��
2018/10/07,19:50,0.797,1.202,0.841,1.495,1.075,0.466,0.815,0.767,�k,5.1,��
2018/10/07,20:00,0.797,1.201,0.844,1.494,1.075,0.466,0.813,0.770,�k�k��,7.4,��
2018/10/07,20:10,0.797,1.202,0.842,1.494,1.074,0.467,0.813,0.769,�k,6.9,��
2018/10/07,20:20,0.797,1.203,0.843,1.495,1.076,0.466,0.814,0.769,�k�k��,6.4,��
2018/10/07,20:30,0.798,1.202,0.842,1.496,1.073,0.468,0.815,0.769,�k��,6.7,��
2018/10/07,20:40,0.797,1.204,0.842,1.493,1.074,0.466,0.817,0.769,�k�k��,5.5,��
2018/10/07,20:50,0.796,1.204,0.841,1.496,1.074,0.467,0.815,0.769,�k�k��,4.0,��
2018/10/07,21:00,0.797,1.203,0.843,1.496,1.076,0.465,0.814,0.769,�k�k��,4.0,��
2018/10/07,21:10,0.794,1.202,0.841,1.495,1.075,0.465,0.814,0.768,�k��,4.2,��
2018/10/07,21:20,0.796,1.201,0.842,1.496,1.075,0.467,0.813,0.770,�k��,4.5,��
2018/10/07,21:30,0.796,1.203,0.839,1.495,1.074,0.466,0.815,0.770,�k��,3.7,��
2018/10/07,21:40,0.796,1.202,0.841,1.496,1.076,0.465,0.817,0.768,�k��,4.3,��
2018/10/07,21:50,0.794,1.201,0.840,1.494,1.075,0.466,0.814,0.769,�k��,4.6,��
2018/10/07,22:00,0.795,1.202,0.839,1.495,1.074,0.465,0.814,0.768,�k��,5.1,��
2018/10/07,22:10,0.794,1.200,0.840,1.496,1.075,0.464,0.817,0.767,�k��,4.5,��
2018/10/07,22:20,0.794,1.201,0.842,1.494,1.074,0.465,0.814,0.768,���k��,3.6,��
2018/10/07,22:30,0.794,1.201,0.840,1.495,1.074,0.465,0.812,0.767,���k��,4.2,��
2018/10/07,22:40,0.797,1.201,0.841,1.493,1.076,0.465,0.814,0.769,���k��,5.0,��
2018/10/07,22:50,0.794,1.202,0.841,1.493,1.074,0.466,0.813,0.769,���k��,5.8,��
2018/10/07,23:00,0.794,1.203,0.840,1.494,1.078,0.464,0.814,0.768,���k��,5.3,��
2018/10/07,23:10,0.794,1.199,0.841,1.496,1.073,0.464,0.812,0.768,�k��,5.2,��
2018/10/07,23:20,0.796,1.201,0.841,1.496,1.076,0.465,0.813,0.767,���k��,5.8,��
2018/10/07,23:30,0.793,1.202,0.841,1.495,1.073,0.465,0.814,0.767,�k��,5.1,��
2018/10/07,23:40,0.795,1.200,0.839,1.494,1.073,0.465,0.812,0.767,�k��,6.5,��
2018/10/07,23:50,0.795,1.203,0.839,1.498,1.074,0.465,0.814,0.767,�k��,8.1,��
